This is the latest recevied weather packets stored in our database for station/object N5ATR. If no packets are shown the sender has not sent any weather packets the latest 10 day(s).
| Time | Temp. | Humidity | Pressure | Rain* | Wind** | Luminosity | Snow |
|---|---|---|---|---|---|---|---|
| 1788366723 | 24.44° C | 38% | 1025.4 hPa | 0 mm | - | 539 W/m² | - |
| 1788366422 | 24.44° C | 38% | 1025.1 hPa | 0 mm | - | 527 W/m² | - |
| 1788366116 | 24.44° C | 38% | 1025.1 hPa | 0 mm | - | 515 W/m² | - |
| 1788365812 | 25° C | 39% | 1025 hPa | 0 mm | - | 503 W/m² | - |
| 1788365507 | 24.44° C | 38% | 1025 hPa | 0 mm | - | 490 W/m² | - |
| 1788365204 | 24.44° C | 38% | 1025.1 hPa | 0 mm | - | 476 W/m² | - |
| 1788364898 | 23.89° C | 39% | 1025 hPa | 0 mm | - | 464 W/m² | - |
| 1788364597 | 23.89° C | 40% | 1025.1 hPa | 0 mm | - | 451 W/m² | - |
| 1788364295 | 23.89° C | 39% | 1024.9 hPa | 0 mm | - | 436 W/m² | - |
| 1788363991 | 23.89° C | 40% | 1025 hPa | 0 mm | - | 419 W/m² | - |
| 1788363686 | 23.89° C | 40% | 1024.9 hPa | 0 mm | - | 407 W/m² | - |
| 1788363385 | 23.89° C | 40% | 1024.9 hPa | 0 mm | - | 391 W/m² | - |
| 1788363080 | 23.33° C | 41% | 1024.6 hPa | 0 mm | - | 361 W/m² | - |
| 1788362776 | 22.78° C | 41% | 1024.7 hPa | 0 mm | - | 358 W/m² | - |
| 1788362472 | 22.78° C | 42% | 1024.5 hPa | 0 mm | - | 156 W/m² | - |
| 1788362167 | 22.78° C | 42% | 1024.6 hPa | 0 mm | - | 264 W/m² | - |
| 1788361867 | 23.33° C | 41% | 1024.6 hPa | 0 mm | - | 365 W/m² | - |
| 1788361563 | 22.78° C | 41% | 1024.4 hPa | 0 mm | - | 330 W/m² | - |
| 1788361258 | 22.78° C | 42% | 1024.6 hPa | 0 mm | - | 308 W/m² | - |
| 1788360957 | 22.78° C | 42% | 1024.5 hPa | 0 mm | - | 308 W/m² | - |
| 1788360657 | 22.22° C | 43% | 1024.6 hPa | 0 mm | - | 282 W/m² | - |
| 1788360355 | 21.67° C | 44% | 1024.4 hPa | 0 mm | - | 257 W/m² | - |
| 1788360054 | 21.67° C | 44% | 1024.5 hPa | 0 mm | - | 215 W/m² | - |
| 1788359750 | 20.56° C | 51% | 1024.4 hPa | 0 mm | - | 194 W/m² | - |
| 1788359445 | 20.56° C | 51% | 1024.5 hPa | 0 mm | - | 177 W/m² | - |
* Rain latest hour (hover to see other rain measurements)
** Current wind speed in m/s (hover to see current wind gust speed)